Weather History for Montevideo, MN

Change the Weather History Date:

Tuesday, September 11, 2012

  Actual Average Record
Temperature  
Mean Temperature 80 °F -  
Max Temperature 96 °F 77 °F 97 °F (1978)
Min Temperature 60 °F 49 °F 31 °F (1964)
Cooling Degree Days 15    
Growing Degree Days 30 (Base 50)    
Moisture  
Dew Point 41 °F    
Average Humidity 34    
Maximum Humidity 55    
Minimum Humidity 10    
Precipitation  
Precipitation 0.00 in - - ()
Sea Level Pressure  
Sea Level Pressure 29.70 in    
Wind  
Wind Speed 8 mph (SW)    
Max Wind Speed 17 mph    
Max Gust Speed 24 mph    
Visibility 10 miles    
Events Rain , Thunderstorm    
Averages and records for this station are not official NWS values.
T = Trace of Precipitation, MM = Missing Value Source: NWS Daily Summary

Daily Weather History Graph

Daily Weather History Graph

Search for Another Location

Airport:

Trip Planner

Search our weather history database for the weather conditions in past years. The results will help you decide how hot, cold, wet, or windy it might be!

Date:

Astronomy

Sep. 11, 2012 Rise Set
Actual Time 6:57 AM CDT 7:40 PM CDT
Civil Twilight 6:27 AM CDT 8:09 PM CDT
Nautical Twilight 5:52 AM CDT 8:44 PM CDT
Astronomical Twilight 5:15 AM CDT 9:21 PM CDT
Moon 2:05 AM CDT (9/11) 4:59 PM CDT (9/11)
Length of Visible Light 13h 42m
Length of Day
12h 42m
Waning Crescent, 21% of the Moon is Illuminated
Sep 11
Waning Crescent
Sep 15
New
Sep 22
First Quarter
Sep 29
Full
Oct 8
Last Quarter

Hourly Weather History & Observations

Time (CDT) Temp. Dew Point Humidity Pressure Visibility Wind Dir Wind Speed Gust Speed Precip Events Conditions
12:14 AM 69.8 °F 44.6 °F 40% 29.70 in 10.0 mi SSW 6.9 mph - N/A   Clear
12:34 AM 69.8 °F 44.6 °F 40% 29.70 in 10.0 mi SSW 8.1 mph - N/A   Clear
12:54 AM 68.0 °F 44.6 °F 43% 29.70 in 10.0 mi SSW 6.9 mph - N/A   Clear
1:14 AM 66.2 °F 46.4 °F 49% 29.70 in 10.0 mi South 6.9 mph - N/A   Clear
1:34 AM 66.2 °F 46.4 °F 49% 29.70 in 10.0 mi SSW 5.8 mph - N/A   Clear
1:54 AM 66.2 °F 46.4 °F 49% 29.70 in 10.0 mi SSW 5.8 mph - N/A   Clear
2:14 AM 64.4 °F 46.4 °F 52% 29.69 in 10.0 mi SSW 6.9 mph - N/A   Clear
2:34 AM 66.2 °F 46.4 °F 49% 29.69 in 10.0 mi SSW 8.1 mph - N/A   Clear
2:54 AM 66.2 °F 46.4 °F 49% 29.69 in 10.0 mi SSW 6.9 mph - N/A   Clear
3:14 AM 66.2 °F 46.4 °F 49% 29.69 in 10.0 mi SSW 6.9 mph - N/A   Clear
3:34 AM 66.2 °F 44.6 °F 46% 29.68 in 10.0 mi South 8.1 mph - N/A   Clear
3:54 AM 66.2 °F 44.6 °F 46% 29.68 in 10.0 mi SSW 6.9 mph - N/A   Clear
4:14 AM 64.4 °F 46.4 °F 52% 29.68 in 10.0 mi South 6.9 mph - N/A   Clear
4:34 AM 64.4 °F 46.4 °F 52% 29.67 in 10.0 mi South 6.9 mph - N/A   Clear
4:54 AM 64.4 °F 46.4 °F 52% 29.67 in 10.0 mi South 6.9 mph - N/A   Clear
5:14 AM 64.4 °F 46.4 °F 52% 29.66 in 10.0 mi South 6.9 mph - N/A   Clear
5:34 AM 64.4 °F 46.4 °F 52% 29.66 in 10.0 mi South 6.9 mph - N/A   Clear
5:54 AM 64.4 °F 46.4 °F 52% 29.67 in 10.0 mi South 6.9 mph - N/A   Clear
6:14 AM 64.4 °F 46.4 °F 52% 29.67 in 10.0 mi South 6.9 mph - N/A   Clear
6:34 AM 64.4 °F 46.4 °F 52% 29.68 in 10.0 mi South 4.6 mph - N/A   Clear
6:54 AM 64.4 °F 46.4 °F 52% 29.68 in 10.0 mi South 5.8 mph - N/A   Clear
7:14 AM 64.4 °F 46.4 °F 52% 29.69 in 10.0 mi South 6.9 mph - N/A   Clear
7:34 AM 64.4 °F 46.4 °F 52% 29.68 in 10.0 mi South 8.1 mph - N/A   Clear
7:54 AM 66.2 °F 46.4 °F 49% 29.68 in 10.0 mi SSW 6.9 mph - N/A   Clear
8:14 AM 66.2 °F 46.4 °F 49% 29.67 in 10.0 mi South 8.1 mph - N/A   Clear
8:34 AM 68.0 °F 44.6 °F 43% 29.66 in 10.0 mi South 10.4 mph - N/A   Clear
8:54 AM 68.0 °F 44.6 °F 43% 29.67 in 10.0 mi SSW 8.1 mph - N/A   Clear
9:14 AM 68.0 °F 46.4 °F 46% 29.66 in 10.0 mi SSW 9.2 mph - N/A   Clear
9:34 AM 68.0 °F 46.4 °F 46% 29.66 in 10.0 mi SSW 9.2 mph - N/A   Clear
9:54 AM 69.8 °F 44.6 °F 40% 29.66 in 10.0 mi SSW 10.4 mph - N/A   Clear
10:15 AM 71.6 °F 44.6 °F 38% 29.65 in 10.0 mi SSW 12.7 mph - N/A   Clear
10:34 AM 71.6 °F 44.6 °F 38% 29.66 in 10.0 mi SW 10.4 mph 16.1 mph N/A   Clear
10:54 AM 71.6 °F 44.6 °F 38% 29.66 in 10.0 mi SSW 8.1 mph - N/A   Clear
11:15 AM 73.4 °F 44.6 °F 36% 29.66 in 10.0 mi SSW 8.1 mph - N/A   Clear
11:34 AM 75.2 °F 46.4 °F 36% 29.67 in 10.0 mi SW 6.9 mph - N/A   Clear
11:54 AM 78.8 °F 46.4 °F 32% 29.67 in 10.0 mi Calm Calm - N/A   Clear
12:14 PM 78.8 °F 44.6 °F 30% 29.67 in 10.0 mi SW 5.8 mph - N/A   Clear
12:34 PM 82.4 °F 39.2 °F 21% 29.65 in 10.0 mi SW 16.1 mph - N/A   Clear
12:54 PM 86.0 °F 37.4 °F 18% 29.65 in 10.0 mi SW 17.3 mph 21.9 mph N/A   Clear
1:14 PM 84.2 °F 39.2 °F 20% 29.65 in 10.0 mi SW 8.1 mph - N/A   Clear
1:34 PM 87.8 °F 39.2 °F 18% 29.65 in 10.0 mi WSW 11.5 mph 17.3 mph N/A   Clear
1:54 PM 87.8 °F 35.6 °F 16% 29.65 in 10.0 mi West 11.5 mph 23.0 mph N/A   Clear
2:14 PM 91.4 °F 35.6 °F 14% 29.65 in 10.0 mi WSW 15.0 mph 20.7 mph N/A   Clear
2:34 PM 91.4 °F 32.0 °F 12% 29.65 in 10.0 mi West 11.5 mph 20.7 mph N/A   Clear
2:54 PM 93.2 °F 30.2 °F 11% 29.65 in 10.0 mi West 9.2 mph - N/A   Clear
3:14 PM 93.2 °F 30.2 °F 11% 29.65 in 10.0 mi West 11.5 mph 18.4 mph N/A   Clear
3:34 PM 95.0 °F 32.0 °F 11% 29.65 in 10.0 mi West 11.5 mph - N/A   Clear
3:54 PM 96.8 °F 32.0 °F 10% 29.64 in 10.0 mi West 11.5 mph 23.0 mph N/A   Clear
4:14 PM 96.8 °F 32.0 °F 10% 29.64 in 10.0 mi West 9.2 mph - N/A   Clear
4:35 PM 96.8 °F 32.0 °F 10% 29.64 in 10.0 mi WSW 13.8 mph 20.7 mph N/A   Clear
4:54 PM 95.0 °F 33.8 °F 12% 29.64 in 10.0 mi NNW 9.2 mph 23.0 mph N/A   Clear
5:14 PM 93.2 °F 37.4 °F 14% 29.65 in 10.0 mi North 9.2 mph - N/A   Clear
5:35 PM 91.4 °F 37.4 °F 15% 29.67 in 10.0 mi NNW 16.1 mph 23.0 mph N/A   Clear
5:54 PM 87.8 °F 39.2 °F 18% 29.69 in 10.0 mi North 15.0 mph 23.0 mph N/A   Clear
6:14 PM 86.0 °F 39.2 °F 19% 29.70 in 10.0 mi North 15.0 mph 21.9 mph N/A   Clear
6:35 PM 84.2 °F 42.8 °F 23% 29.71 in 10.0 mi North 13.8 mph - N/A   Clear
6:54 PM 82.4 °F 42.8 °F 25% 29.72 in 10.0 mi North 16.1 mph 20.7 mph N/A   Clear
7:14 PM 78.8 °F 41.0 °F 26% 29.74 in 10.0 mi North 12.7 mph - N/A   Clear
7:35 PM 77.0 °F 39.2 °F 26% 29.75 in 10.0 mi North 12.7 mph 20.7 mph N/A   Clear
7:54 PM 75.2 °F 35.6 °F 24% 29.77 in 10.0 mi North 10.4 mph - N/A   Clear
8:14 PM 73.4 °F 35.6 °F 25% 29.78 in 10.0 mi North 6.9 mph - N/A   Clear
8:35 PM 73.4 °F 35.6 °F 25% 29.79 in 10.0 mi North 8.1 mph - N/A   Clear
8:54 PM 71.6 °F 35.6 °F 27% 29.80 in 10.0 mi North 9.2 mph - N/A   Clear
9:14 PM 69.8 °F 35.6 °F 28% 29.82 in 10.0 mi North 6.9 mph - N/A   Clear
9:35 PM 69.8 °F 33.8 °F 27% 29.83 in 10.0 mi North 8.1 mph - N/A   Clear
9:54 PM 68.0 °F 33.8 °F 28% 29.84 in 10.0 mi North 5.8 mph - N/A   Clear
10:14 PM 68.0 °F 33.8 °F 28% 29.85 in 10.0 mi NNE 4.6 mph - N/A   Clear
10:35 PM 66.2 °F 32.0 °F 28% 29.86 in 10.0 mi North 5.8 mph - N/A   Scattered Clouds
10:54 PM 66.2 °F 33.8 °F 30% 29.89 in 10.0 mi North 9.2 mph - N/A   Overcast
11:35 PM 66.2 °F 33.8 °F 30% 29.92 in 10.0 mi NNE 16.1 mph 24.2 mph N/A Rain Light Rain
11:54 PM 60.8 °F 44.6 °F 55% 29.91 in 10.0 mi NNE 12.7 mph - N/A Rain , Thunderstorm Rain